Year,Month,Day,Hour,Minute,Value (Times are PST for temperature in C)
2010,08,14,00,00,23.10
2010,08,14,00,01,23.00
2010,08,14,00,02,22.90
2010,08,14,00,03,22.80
2010,08,14,00,04,22.70
2010,08,14,00,05,22.70
2010,08,14,00,06,22.60
2010,08,14,00,07,22.50
2010,08,14,00,08,22.40
2010,08,14,00,09,22.30
2010,08,14,00,10,22.30
2010,08,14,00,11,22.20
2010,08,14,00,12,22.10
2010,08,14,00,13,22.00
2010,08,14,00,14,22.00
2010,08,14,00,15,21.90
2010,08,14,00,16,21.80
2010,08,14,00,17,21.90
2010,08,14,00,18,21.90
2010,08,14,00,19,21.90
2010,08,14,00,20,21.90
2010,08,14,00,21,21.90
2010,08,14,00,22,22.00
2010,08,14,00,23,22.10
2010,08,14,00,24,22.20
2010,08,14,00,25,22.30
2010,08,14,00,26,22.40
2010,08,14,00,27,22.50
2010,08,14,00,28,22.40
2010,08,14,00,29,22.40
2010,08,14,00,30,22.30
2010,08,14,00,31,22.30
2010,08,14,00,32,22.30
2010,08,14,00,33,22.30
2010,08,14,00,34,22.30
2010,08,14,00,35,22.30
2010,08,14,00,36,22.30
2010,08,14,00,37,22.30
2010,08,14,00,38,22.20
2010,08,14,00,39,22.10
2010,08,14,00,40,22.00
2010,08,14,00,41,22.00
2010,08,14,00,42,22.00
2010,08,14,00,43,21.90
2010,08,14,00,44,21.80
2010,08,14,00,45,21.70
2010,08,14,00,46,21.60
2010,08,14,00,47,21.60
2010,08,14,00,48,21.50
2010,08,14,00,49,21.40
2010,08,14,00,50,21.30
2010,08,14,00,51,21.30
2010,08,14,00,52,21.30
2010,08,14,00,53,21.30
2010,08,14,00,54,21.30
2010,08,14,00,55,21.30
2010,08,14,00,56,21.30
2010,08,14,00,57,21.20
2010,08,14,00,58,21.20
2010,08,14,00,59,21.20
2010,08,14,01,00,21.10
2010,08,14,01,01,21.00
2010,08,14,01,02,21.00
2010,08,14,01,03,20.90
2010,08,14,01,04,20.80
2010,08,14,01,05,20.70
2010,08,14,01,06,20.50
2010,08,14,01,07,20.50
2010,08,14,01,08,20.50
2010,08,14,01,09,20.50
2010,08,14,01,10,20.50
2010,08,14,01,11,20.40
2010,08,14,01,12,20.40
2010,08,14,01,13,20.20
2010,08,14,01,14,20.20
2010,08,14,01,15,20.10
2010,08,14,01,16,20.00
2010,08,14,01,17,19.90
2010,08,14,01,18,19.90
2010,08,14,01,19,19.80
2010,08,14,01,20,19.70
2010,08,14,01,21,19.60
2010,08,14,01,22,19.60
2010,08,14,01,23,19.50
2010,08,14,01,24,19.50
2010,08,14,01,25,19.50
2010,08,14,01,26,19.50
2010,08,14,01,27,19.50
2010,08,14,01,28,19.60
2010,08,14,01,29,19.60
2010,08,14,01,30,19.60
2010,08,14,01,31,19.50
2010,08,14,01,32,19.40
2010,08,14,01,33,19.20
2010,08,14,01,34,19.10
2010,08,14,01,35,18.90
2010,08,14,01,36,18.90
2010,08,14,01,37,18.80
2010,08,14,01,38,18.70
2010,08,14,01,39,18.60
2010,08,14,01,40,18.60
2010,08,14,01,41,18.50
2010,08,14,01,42,18.50
2010,08,14,01,43,18.50
2010,08,14,01,44,18.40
2010,08,14,01,45,18.40
2010,08,14,01,46,18.50
2010,08,14,01,47,18.50
2010,08,14,01,48,18.50
2010,08,14,01,49,18.50
2010,08,14,01,50,18.40
2010,08,14,01,51,18.40
2010,08,14,01,52,18.20
2010,08,14,01,53,18.10
2010,08,14,01,54,18.00
2010,08,14,01,55,17.90
2010,08,14,01,56,17.90
2010,08,14,01,57,17.90
2010,08,14,01,58,17.80
2010,08,14,01,59,17.80
2010,08,14,02,00,17.80
2010,08,14,02,01,17.80
2010,08,14,02,02,17.80
2010,08,14,02,03,17.80
2010,08,14,02,04,17.80
2010,08,14,02,05,17.80
2010,08,14,02,06,17.80
2010,08,14,02,07,17.70
2010,08,14,02,08,17.70
2010,08,14,02,09,17.70
2010,08,14,02,10,17.70
2010,08,14,02,11,17.70
2010,08,14,02,12,17.70
2010,08,14,02,13,17.70
2010,08,14,02,14,17.70
2010,08,14,02,15,17.70
2010,08,14,02,16,17.70
2010,08,14,02,17,17.70
2010,08,14,02,18,17.70
2010,08,14,02,19,17.60
2010,08,14,02,20,17.60
2010,08,14,02,21,17.70
2010,08,14,02,22,17.70
2010,08,14,02,23,17.70
2010,08,14,02,24,17.70
2010,08,14,02,25,17.60
2010,08,14,02,26,17.60
2010,08,14,02,27,17.60
2010,08,14,02,28,17.60
2010,08,14,02,29,17.70
2010,08,14,02,30,17.80
2010,08,14,02,31,17.90
2010,08,14,02,32,18.00
2010,08,14,02,33,18.10
2010,08,14,02,34,18.30
2010,08,14,02,35,18.40
2010,08,14,02,36,18.60
2010,08,14,02,37,19.00
2010,08,14,02,38,19.10
2010,08,14,02,39,19.30
2010,08,14,02,40,19.40
2010,08,14,02,41,19.60
2010,08,14,02,42,19.80
2010,08,14,02,43,19.90
2010,08,14,02,44,19.90
2010,08,14,02,45,19.90
2010,08,14,02,46,20.00
2010,08,14,02,47,20.10
2010,08,14,02,48,20.10
2010,08,14,02,49,20.00
2010,08,14,02,50,19.90
2010,08,14,02,51,19.90
2010,08,14,02,52,19.80
2010,08,14,02,53,19.80
2010,08,14,02,54,19.70
2010,08,14,02,55,19.70
2010,08,14,02,56,19.60
2010,08,14,02,57,19.60
2010,08,14,02,58,19.50
2010,08,14,02,59,19.50
2010,08,14,03,00,19.50
2010,08,14,03,01,19.50
2010,08,14,03,02,19.50
2010,08,14,03,03,19.50
2010,08,14,03,04,19.50
2010,08,14,03,05,19.50
2010,08,14,03,06,19.40
2010,08,14,03,07,19.40
2010,08,14,03,08,19.30
2010,08,14,03,09,19.20
2010,08,14,03,10,19.20
2010,08,14,03,11,19.10
2010,08,14,03,12,19.10
2010,08,14,03,13,19.00
2010,08,14,03,14,18.90
2010,08,14,03,15,18.90
2010,08,14,03,16,18.80
2010,08,14,03,17,18.70
2010,08,14,03,18,18.70
2010,08,14,03,19,18.70
2010,08,14,03,20,18.60
2010,08,14,03,21,18.60
2010,08,14,03,22,18.60
2010,08,14,03,23,18.60
2010,08,14,03,24,18.60
2010,08,14,03,25,18.60
2010,08,14,03,26,18.50
2010,08,14,03,27,18.40
2010,08,14,03,28,18.40
2010,08,14,03,29,18.30
2010,08,14,03,30,18.30
2010,08,14,03,31,18.30
2010,08,14,03,32,18.40
2010,08,14,03,33,18.50
2010,08,14,03,34,18.60
2010,08,14,03,35,18.70
2010,08,14,03,36,18.80
2010,08,14,03,37,19.00
2010,08,14,03,38,19.10
2010,08,14,03,39,19.10
2010,08,14,03,40,19.30
2010,08,14,03,41,19.30
2010,08,14,03,42,19.20
2010,08,14,03,43,19.20
2010,08,14,03,44,19.30
2010,08,14,03,45,19.30
2010,08,14,03,46,19.30
2010,08,14,03,47,19.30
2010,08,14,03,48,19.20
2010,08,14,03,49,19.20
2010,08,14,03,50,19.20
2010,08,14,03,51,19.20
2010,08,14,03,52,19.20
2010,08,14,03,53,19.10
2010,08,14,03,54,19.10
2010,08,14,03,55,19.00
2010,08,14,03,56,18.90
2010,08,14,03,57,18.80
2010,08,14,03,58,18.70
2010,08,14,03,59,18.60
2010,08,14,04,00,18.50
2010,08,14,04,01,18.30
2010,08,14,04,02,18.20
2010,08,14,04,03,18.20
2010,08,14,04,04,18.10
2010,08,14,04,05,18.10
2010,08,14,04,06,18.00
2010,08,14,04,07,17.90
2010,08,14,04,08,17.90
2010,08,14,04,09,17.90
2010,08,14,04,10,17.90
2010,08,14,04,11,17.90
2010,08,14,04,12,18.00
2010,08,14,04,13,18.10
2010,08,14,04,14,18.20
2010,08,14,04,15,18.20
2010,08,14,04,16,18.30
2010,08,14,04,17,18.30
2010,08,14,04,18,18.30
2010,08,14,04,19,18.30
2010,08,14,04,20,18.30
2010,08,14,04,21,18.40
2010,08,14,04,22,18.40
2010,08,14,04,23,18.50
2010,08,14,04,24,18.50
2010,08,14,04,25,18.50
2010,08,14,04,26,18.50
2010,08,14,04,27,18.50
2010,08,14,04,28,18.40
2010,08,14,04,29,18.40
2010,08,14,04,30,18.30
2010,08,14,04,31,18.20
2010,08,14,04,32,18.20
2010,08,14,04,33,18.20
2010,08,14,04,34,18.20
2010,08,14,04,35,18.20
2010,08,14,04,36,18.20
2010,08,14,04,37,18.20
2010,08,14,04,38,18.20
2010,08,14,04,39,18.30
2010,08,14,04,40,18.50
2010,08,14,04,41,18.50
2010,08,14,04,42,18.60
2010,08,14,04,43,18.50
2010,08,14,04,44,18.50
2010,08,14,04,45,18.50
2010,08,14,04,46,18.40
2010,08,14,04,47,18.30
2010,08,14,04,48,18.20
2010,08,14,04,49,18.00
2010,08,14,04,50,17.90
2010,08,14,04,51,17.80
2010,08,14,04,52,17.70
2010,08,14,04,53,17.60
2010,08,14,04,54,17.50
2010,08,14,04,55,17.40
2010,08,14,04,56,17.30
2010,08,14,04,57,17.30
2010,08,14,04,58,17.30
2010,08,14,04,59,17.20
2010,08,14,05,00,17.10
2010,08,14,05,01,17.00
2010,08,14,05,02,17.00
2010,08,14,05,03,16.90
2010,08,14,05,04,16.90
2010,08,14,05,05,16.80
2010,08,14,05,06,16.70
2010,08,14,05,07,16.70
2010,08,14,05,08,16.60
2010,08,14,05,09,16.70
2010,08,14,05,10,16.70
2010,08,14,05,11,16.80
2010,08,14,05,12,16.90
2010,08,14,05,13,16.90
2010,08,14,05,14,17.00
2010,08,14,05,15,17.00
2010,08,14,05,16,17.00
2010,08,14,05,17,16.90
2010,08,14,05,18,16.90
2010,08,14,05,19,16.90
2010,08,14,05,20,16.90
2010,08,14,05,21,16.80
2010,08,14,05,22,16.80
2010,08,14,05,23,16.70
2010,08,14,05,24,16.70
2010,08,14,05,25,16.70
2010,08,14,05,26,16.80
2010,08,14,05,27,16.80
2010,08,14,05,28,16.80
2010,08,14,05,29,16.80
2010,08,14,05,30,16.80
2010,08,14,05,31,16.70
2010,08,14,05,32,16.70
2010,08,14,05,33,16.70
2010,08,14,05,34,16.70
2010,08,14,05,35,16.70
2010,08,14,05,36,16.60
2010,08,14,05,37,16.60
2010,08,14,05,38,16.60
2010,08,14,05,39,16.60
2010,08,14,05,40,16.60
2010,08,14,05,41,16.60
2010,08,14,05,42,16.60
2010,08,14,05,43,16.60
2010,08,14,05,44,16.70
2010,08,14,05,45,16.70
2010,08,14,05,46,16.70
2010,08,14,05,47,16.70
2010,08,14,05,48,16.70
2010,08,14,05,49,16.70
2010,08,14,05,50,16.70
2010,08,14,05,51,16.70
2010,08,14,05,52,16.70
2010,08,14,05,53,16.70
2010,08,14,05,54,16.70
2010,08,14,05,55,16.70
2010,08,14,05,56,16.70
2010,08,14,05,57,16.70
2010,08,14,05,58,16.70
2010,08,14,05,59,16.70
2010,08,14,06,00,16.70
2010,08,14,06,01,16.70
2010,08,14,06,02,16.70
2010,08,14,06,03,16.70
2010,08,14,06,04,16.80
2010,08,14,06,05,16.80
2010,08,14,06,06,16.80
2010,08,14,06,07,16.80
2010,08,14,06,08,16.70
2010,08,14,06,09,16.60
2010,08,14,06,10,16.50
2010,08,14,06,11,16.40
2010,08,14,06,12,16.30
2010,08,14,06,13,16.30
2010,08,14,06,14,16.40
2010,08,14,06,15,16.40
2010,08,14,06,16,16.60
2010,08,14,06,17,16.70
2010,08,14,06,18,16.80
2010,08,14,06,19,16.90
2010,08,14,06,20,16.80
2010,08,14,06,21,16.80
2010,08,14,06,22,16.80
2010,08,14,06,23,16.70
2010,08,14,06,24,16.60
2010,08,14,06,25,16.50
2010,08,14,06,26,16.40
2010,08,14,06,27,16.30
2010,08,14,06,28,16.30
2010,08,14,06,29,16.30
2010,08,14,06,30,16.30
2010,08,14,06,31,16.20
2010,08,14,06,32,16.20
2010,08,14,06,33,16.20
2010,08,14,06,34,16.10
2010,08,14,06,35,16.10
2010,08,14,06,36,16.10
2010,08,14,06,37,16.10
2010,08,14,06,38,16.10
2010,08,14,06,39,16.10
2010,08,14,06,40,16.10
2010,08,14,06,41,16.10
2010,08,14,06,42,16.20
2010,08,14,06,43,16.30
2010,08,14,06,44,16.30
2010,08,14,06,45,16.40
2010,08,14,06,46,16.40
2010,08,14,06,47,16.40
2010,08,14,06,48,16.40
2010,08,14,06,49,16.50
2010,08,14,06,50,16.60
2010,08,14,06,51,16.60
2010,08,14,06,52,16.60
2010,08,14,06,53,16.70
2010,08,14,06,54,16.80
2010,08,14,06,55,16.90
2010,08,14,06,56,17.00
2010,08,14,06,57,17.20
2010,08,14,06,58,17.30
2010,08,14,06,59,17.30
2010,08,14,07,00,17.40
2010,08,14,07,01,17.50
2010,08,14,07,02,17.60
2010,08,14,07,03,17.70
2010,08,14,07,04,17.70
2010,08,14,07,05,17.80
2010,08,14,07,06,17.80
2010,08,14,07,07,17.90
2010,08,14,07,08,17.90
2010,08,14,07,09,18.00
2010,08,14,07,10,18.10
2010,08,14,07,11,18.10
2010,08,14,07,12,18.20
2010,08,14,07,13,18.20
2010,08,14,07,14,18.20
2010,08,14,07,15,18.20
2010,08,14,07,16,18.20
2010,08,14,07,17,18.20
2010,08,14,07,18,18.20
2010,08,14,07,19,18.20
2010,08,14,07,20,18.40
2010,08,14,07,21,18.40
2010,08,14,07,22,18.50
2010,08,14,07,23,18.60
2010,08,14,07,24,18.70
2010,08,14,07,25,18.80
2010,08,14,07,26,18.90
2010,08,14,07,27,18.90
2010,08,14,07,28,19.00
2010,08,14,07,29,19.10
2010,08,14,07,30,19.10
2010,08,14,07,31,19.10
2010,08,14,07,32,19.20
2010,08,14,07,33,19.30
2010,08,14,07,34,19.30
2010,08,14,07,35,19.40
2010,08,14,07,36,19.50
2010,08,14,07,37,19.60
2010,08,14,07,38,19.80
2010,08,14,07,39,19.90
2010,08,14,07,40,20.00
2010,08,14,07,41,20.10
2010,08,14,07,42,20.20
2010,08,14,07,43,20.20
2010,08,14,07,44,20.30
2010,08,14,07,45,20.50
2010,08,14,07,46,20.50
2010,08,14,07,47,20.60
2010,08,14,07,48,20.70
2010,08,14,07,49,20.70
2010,08,14,07,50,20.70
2010,08,14,07,51,20.70
2010,08,14,07,52,20.70
2010,08,14,07,53,20.70
2010,08,14,07,54,20.70
2010,08,14,07,55,20.70
2010,08,14,07,56,20.70
2010,08,14,07,57,20.70
2010,08,14,07,58,20.70
2010,08,14,07,59,20.80
2010,08,14,08,00,20.90
2010,08,14,08,01,20.90
2010,08,14,08,02,21.10
2010,08,14,08,03,21.30
2010,08,14,08,04,21.40
2010,08,14,08,05,21.50
2010,08,14,08,06,21.60
2010,08,14,08,07,21.70
2010,08,14,08,08,21.90
2010,08,14,08,09,22.00
2010,08,14,08,10,22.20
2010,08,14,08,11,22.40
2010,08,14,08,12,22.60
2010,08,14,08,13,22.60
2010,08,14,08,14,22.70
2010,08,14,08,15,22.80
2010,08,14,08,16,22.90
2010,08,14,08,17,22.90
2010,08,14,08,18,23.00
2010,08,14,08,19,23.10
2010,08,14,08,20,23.20
2010,08,14,08,21,23.30
2010,08,14,08,22,23.30
2010,08,14,08,23,23.30
2010,08,14,08,24,23.40
2010,08,14,08,25,23.40
2010,08,14,08,26,23.40
2010,08,14,08,27,23.40
2010,08,14,08,28,23.60
2010,08,14,08,29,23.60
2010,08,14,08,30,23.60
2010,08,14,08,31,23.70
2010,08,14,08,32,23.70
2010,08,14,08,33,23.70
2010,08,14,08,34,23.70
2010,08,14,08,35,23.70
2010,08,14,08,36,23.70
2010,08,14,08,37,23.80
2010,08,14,08,38,23.80
2010,08,14,08,39,23.80
2010,08,14,08,40,23.90
2010,08,14,08,41,23.90
2010,08,14,08,42,23.90
2010,08,14,08,43,23.90
2010,08,14,08,44,23.90
2010,08,14,08,45,24.10
2010,08,14,08,46,24.10
2010,08,14,08,47,24.10
2010,08,14,08,48,24.10
2010,08,14,08,49,24.10
2010,08,14,08,50,24.10
2010,08,14,08,51,24.10
2010,08,14,08,52,24.10
2010,08,14,08,53,24.20
2010,08,14,08,54,24.20
2010,08,14,08,55,24.20
2010,08,14,08,56,24.20
2010,08,14,08,57,24.20
2010,08,14,08,58,24.20
2010,08,14,08,59,24.30
2010,08,14,09,00,24.30
2010,08,14,09,01,24.30
2010,08,14,09,02,24.30
2010,08,14,09,03,24.30
2010,08,14,09,04,24.40
2010,08,14,09,05,24.40
2010,08,14,09,06,24.40
2010,08,14,09,07,24.50
2010,08,14,09,08,24.50
2010,08,14,09,09,24.50
2010,08,14,09,10,24.50
2010,08,14,09,11,24.50
2010,08,14,09,12,24.50
2010,08,14,09,13,24.50
2010,08,14,09,14,24.60
2010,08,14,09,15,24.60
2010,08,14,09,16,24.60
2010,08,14,09,17,24.60
2010,08,14,09,18,24.60
2010,08,14,09,19,24.70
2010,08,14,09,20,24.70
2010,08,14,09,21,24.70
2010,08,14,09,22,24.70
2010,08,14,09,23,24.70
2010,08,14,09,24,24.70
2010,08,14,09,25,24.80
2010,08,14,09,26,24.80
2010,08,14,09,27,24.80
2010,08,14,09,28,24.80
2010,08,14,09,29,24.80
2010,08,14,09,30,24.90
2010,08,14,09,31,24.90
2010,08,14,09,32,24.90
2010,08,14,09,33,25.00
2010,08,14,09,34,25.10
2010,08,14,09,35,25.10
2010,08,14,09,36,25.10
2010,08,14,09,37,25.20
2010,08,14,09,38,25.20
2010,08,14,09,39,25.20
2010,08,14,09,40,25.20
2010,08,14,09,41,25.20
2010,08,14,09,42,25.20
2010,08,14,09,43,25.10
2010,08,14,09,44,25.20
2010,08,14,09,45,25.20
2010,08,14,09,46,25.20
2010,08,14,09,47,25.30
2010,08,14,09,48,25.30
2010,08,14,09,49,25.40
2010,08,14,09,50,25.40
2010,08,14,09,51,25.50
2010,08,14,09,52,25.50
2010,08,14,09,53,25.50
2010,08,14,09,54,25.60
2010,08,14,09,55,25.60
2010,08,14,09,56,25.60
2010,08,14,09,57,25.70
2010,08,14,09,58,25.70
2010,08,14,09,59,25.80
2010,08,14,10,00,25.80
2010,08,14,10,01,25.80
2010,08,14,10,02,25.90
2010,08,14,10,03,25.90
2010,08,14,10,04,26.00
2010,08,14,10,05,26.10
2010,08,14,10,06,26.20
2010,08,14,10,07,26.30
2010,08,14,10,08,26.30
2010,08,14,10,09,26.30
2010,08,14,10,10,26.30
2010,08,14,10,11,26.30
2010,08,14,10,12,26.30
2010,08,14,10,13,26.30
2010,08,14,10,14,26.40
2010,08,14,10,15,26.40
2010,08,14,10,16,26.50
2010,08,14,10,17,26.60
2010,08,14,10,18,26.60
2010,08,14,10,19,26.60
2010,08,14,10,20,26.50
2010,08,14,10,21,26.40
2010,08,14,10,22,26.30
2010,08,14,10,23,26.30
2010,08,14,10,24,26.30
2010,08,14,10,25,26.40
2010,08,14,10,26,26.40
2010,08,14,10,27,26.60
2010,08,14,10,28,26.60
2010,08,14,10,29,26.60
2010,08,14,10,30,26.80
2010,08,14,10,31,27.00
2010,08,14,10,32,27.10
2010,08,14,10,33,27.20
2010,08,14,10,34,27.20
2010,08,14,10,35,27.20
2010,08,14,10,36,27.10
2010,08,14,10,37,27.00
2010,08,14,10,38,26.90
2010,08,14,10,39,26.80
2010,08,14,10,40,26.80
2010,08,14,10,41,26.70
2010,08,14,10,42,26.60
2010,08,14,10,43,26.60
2010,08,14,10,44,26.40
2010,08,14,10,45,26.30
2010,08,14,10,46,26.10
2010,08,14,10,47,25.90
2010,08,14,10,48,25.90
2010,08,14,10,49,25.80
2010,08,14,10,50,25.70
2010,08,14,10,51,25.70
2010,08,14,10,52,25.70
2010,08,14,10,53,25.70
2010,08,14,10,54,25.70
2010,08,14,10,55,25.80
2010,08,14,10,56,25.80
2010,08,14,10,57,25.90
2010,08,14,10,58,26.00
2010,08,14,10,59,25.90
2010,08,14,11,00,25.90
2010,08,14,11,01,25.90
2010,08,14,11,02,25.90
2010,08,14,11,03,25.90
2010,08,14,11,04,26.00
2010,08,14,11,05,26.10
2010,08,14,11,06,26.20
2010,08,14,11,07,26.40
2010,08,14,11,08,26.60
2010,08,14,11,09,26.70
2010,08,14,11,10,26.80
2010,08,14,11,11,27.00
2010,08,14,11,12,27.10
2010,08,14,11,13,27.10
2010,08,14,11,14,27.20
2010,08,14,11,15,27.20
2010,08,14,11,16,27.30
2010,08,14,11,17,27.30
2010,08,14,11,18,27.30
2010,08,14,11,19,27.30
2010,08,14,11,20,27.40
2010,08,14,11,21,27.40
2010,08,14,11,22,27.30
2010,08,14,11,23,27.40
2010,08,14,11,24,27.50
2010,08,14,11,25,27.60
2010,08,14,11,26,27.80
2010,08,14,11,27,27.90
2010,08,14,11,28,27.90
2010,08,14,11,29,28.00
2010,08,14,11,30,28.10
2010,08,14,11,31,28.10
2010,08,14,11,32,28.20
2010,08,14,11,33,28.20
2010,08,14,11,34,28.20
2010,08,14,11,35,28.20
2010,08,14,11,36,28.20
2010,08,14,11,37,28.20
2010,08,14,11,38,28.20
2010,08,14,11,39,28.30
2010,08,14,11,40,28.40
2010,08,14,11,41,28.50
2010,08,14,11,42,28.60
2010,08,14,11,43,28.60
2010,08,14,11,44,28.70
2010,08,14,11,45,28.70
2010,08,14,11,46,28.70
2010,08,14,11,47,28.70
2010,08,14,11,48,28.80
2010,08,14,11,49,28.80
2010,08,14,11,50,28.80
2010,08,14,11,51,28.90
2010,08,14,11,52,28.80
2010,08,14,11,53,28.80
2010,08,14,11,54,28.90
2010,08,14,11,55,28.90
2010,08,14,11,56,28.90
2010,08,14,11,57,28.80
2010,08,14,11,58,28.80
2010,08,14,11,59,28.80
2010,08,14,12,00,28.80
2010,08,14,12,01,28.80
2010,08,14,12,02,28.80
2010,08,14,12,03,28.70
2010,08,14,12,04,28.70
2010,08,14,12,05,28.70
2010,08,14,12,06,28.70
2010,08,14,12,07,28.80
2010,08,14,12,08,28.80
2010,08,14,12,09,28.80
2010,08,14,12,10,28.80
2010,08,14,12,11,28.80
2010,08,14,12,12,28.80
2010,08,14,12,13,28.90
2010,08,14,12,14,28.90
2010,08,14,12,15,29.10
2010,08,14,12,16,29.10
2010,08,14,12,17,29.10
2010,08,14,12,18,29.10
2010,08,14,12,19,29.10
2010,08,14,12,20,29.10
2010,08,14,12,21,29.20
2010,08,14,12,22,29.20
2010,08,14,12,23,29.30
2010,08,14,12,24,29.30
2010,08,14,12,25,29.30
2010,08,14,12,26,29.20
2010,08,14,12,27,29.20
2010,08,14,12,28,29.10
2010,08,14,12,29,29.20
2010,08,14,12,30,29.20
2010,08,14,12,31,29.30
2010,08,14,12,32,29.30
2010,08,14,12,33,29.30
2010,08,14,12,34,29.40
2010,08,14,12,35,29.50
2010,08,14,12,36,29.60
2010,08,14,12,37,29.70
2010,08,14,12,38,29.80
2010,08,14,12,39,29.80
2010,08,14,12,40,29.80
2010,08,14,12,41,29.80
2010,08,14,12,42,29.80
2010,08,14,12,43,29.90
2010,08,14,12,44,29.90
2010,08,14,12,45,30.00
2010,08,14,12,46,30.10
2010,08,14,12,47,30.10
2010,08,14,12,48,30.00
2010,08,14,12,49,29.90
2010,08,14,12,50,29.80
2010,08,14,12,51,29.70
2010,08,14,12,52,29.70
2010,08,14,12,53,29.60
2010,08,14,12,54,29.60
2010,08,14,12,55,29.70
2010,08,14,12,56,29.70
2010,08,14,12,57,29.60
2010,08,14,12,58,29.60
2010,08,14,12,59,29.60
2010,08,14,13,00,29.50
2010,08,14,13,01,29.40
2010,08,14,13,02,29.40
2010,08,14,13,03,29.40
2010,08,14,13,04,29.40
2010,08,14,13,05,29.40
2010,08,14,13,06,29.50
2010,08,14,13,07,29.60
2010,08,14,13,08,29.60
2010,08,14,13,09,29.70
2010,08,14,13,10,29.70
2010,08,14,13,11,29.70
2010,08,14,13,12,29.70
2010,08,14,13,13,29.70
2010,08,14,13,14,29.70
2010,08,14,13,15,29.60
2010,08,14,13,16,29.60
2010,08,14,13,17,29.50
2010,08,14,13,18,29.50
2010,08,14,13,19,29.60
2010,08,14,13,20,29.60
2010,08,14,13,21,29.70
2010,08,14,13,22,29.70
2010,08,14,13,23,29.70
2010,08,14,13,24,29.70
2010,08,14,13,25,29.80
2010,08,14,13,26,29.80
2010,08,14,13,27,29.70
2010,08,14,13,28,29.70
2010,08,14,13,29,29.60
2010,08,14,13,30,29.60
2010,08,14,13,31,29.60
2010,08,14,13,32,29.70
2010,08,14,13,33,29.70
2010,08,14,13,34,29.70
2010,08,14,13,35,29.70
2010,08,14,13,36,29.70
2010,08,14,13,37,29.80
2010,08,14,13,38,29.80
2010,08,14,13,39,29.80
2010,08,14,13,40,29.80
2010,08,14,13,41,29.80
2010,08,14,13,42,29.80
2010,08,14,13,43,29.80
2010,08,14,13,44,29.80
2010,08,14,13,45,29.70
2010,08,14,13,46,29.70
2010,08,14,13,47,29.70
2010,08,14,13,48,29.70
2010,08,14,13,49,29.80
2010,08,14,13,50,29.80
2010,08,14,13,51,29.90
2010,08,14,13,52,29.90
2010,08,14,13,53,29.90
2010,08,14,13,54,29.90
2010,08,14,13,55,29.90
2010,08,14,13,56,29.80
2010,08,14,13,57,29.80
2010,08,14,13,58,29.80
2010,08,14,13,59,29.90
2010,08,14,14,00,29.90
2010,08,14,14,01,30.00
2010,08,14,14,02,30.10
2010,08,14,14,03,30.10
2010,08,14,14,04,30.20
2010,08,14,14,05,30.30
2010,08,14,14,06,30.40
2010,08,14,14,07,30.50
2010,08,14,14,08,30.60
2010,08,14,14,09,30.70
2010,08,14,14,10,30.80
2010,08,14,14,11,30.80
2010,08,14,14,12,30.80
2010,08,14,14,13,30.80
2010,08,14,14,14,30.80
2010,08,14,14,15,30.80
2010,08,14,14,16,30.80
2010,08,14,14,17,30.80
2010,08,14,14,18,30.80
2010,08,14,14,19,30.80
2010,08,14,14,20,30.70
2010,08,14,14,21,30.60
2010,08,14,14,22,30.60
2010,08,14,14,23,30.60
2010,08,14,14,24,30.70
2010,08,14,14,25,30.60
2010,08,14,14,26,30.60
2010,08,14,14,27,30.60
2010,08,14,14,28,30.60
2010,08,14,14,29,30.60
2010,08,14,14,30,30.60
2010,08,14,14,31,30.60
2010,08,14,14,32,30.70
2010,08,14,14,33,30.80
2010,08,14,14,34,30.80
2010,08,14,14,35,30.80
2010,08,14,14,36,30.90
2010,08,14,14,37,30.90
2010,08,14,14,38,30.90
2010,08,14,14,39,30.90
2010,08,14,14,40,30.90
2010,08,14,14,41,31.00
2010,08,14,14,42,31.00
2010,08,14,14,43,31.00
2010,08,14,14,44,31.00
2010,08,14,14,45,31.00
2010,08,14,14,46,31.00
2010,08,14,14,47,30.90
2010,08,14,14,48,30.90
2010,08,14,14,49,30.90
2010,08,14,14,50,30.90
2010,08,14,14,51,30.90
2010,08,14,14,52,30.80
2010,08,14,14,53,30.90
2010,08,14,14,54,31.00
2010,08,14,14,55,31.10
2010,08,14,14,56,31.20
2010,08,14,14,57,31.20
2010,08,14,14,58,31.20
2010,08,14,14,59,31.10
2010,08,14,15,00,31.20
2010,08,14,15,01,31.20
2010,08,14,15,02,31.10
2010,08,14,15,03,31.20
2010,08,14,15,04,31.20
2010,08,14,15,05,31.20
2010,08,14,15,06,31.30
2010,08,14,15,07,31.30
2010,08,14,15,08,31.40
2010,08,14,15,09,31.40
2010,08,14,15,10,31.60
2010,08,14,15,11,31.60
2010,08,14,15,12,31.60
2010,08,14,15,13,31.50
2010,08,14,15,14,31.50
2010,08,14,15,15,31.60
2010,08,14,15,16,31.60
2010,08,14,15,17,31.60
2010,08,14,15,18,31.70
2010,08,14,15,19,31.70
2010,08,14,15,20,31.80
2010,08,14,15,21,31.80
2010,08,14,15,22,31.90
2010,08,14,15,23,32.00
2010,08,14,15,24,32.10
2010,08,14,15,25,32.20
2010,08,14,15,26,32.10
2010,08,14,15,27,32.10
2010,08,14,15,28,32.10
2010,08,14,15,29,32.10
2010,08,14,15,30,32.10
2010,08,14,15,31,32.00
2010,08,14,15,32,31.90
2010,08,14,15,33,31.90
2010,08,14,15,34,31.90
2010,08,14,15,35,31.80
2010,08,14,15,36,31.80
2010,08,14,15,37,31.80
2010,08,14,15,38,31.80
2010,08,14,15,39,31.90
2010,08,14,15,40,31.90
2010,08,14,15,41,32.10
2010,08,14,15,42,32.10
2010,08,14,15,43,32.20
2010,08,14,15,44,32.20
2010,08,14,15,45,32.20
2010,08,14,15,46,32.30
2010,08,14,15,47,32.30
2010,08,14,15,48,32.30
2010,08,14,15,49,32.30
2010,08,14,15,50,32.30
2010,08,14,15,51,32.30
2010,08,14,15,52,32.30
2010,08,14,15,53,32.40
2010,08,14,15,54,32.40
2010,08,14,15,55,32.40
2010,08,14,15,56,32.40
2010,08,14,15,57,32.40
2010,08,14,15,58,32.40
2010,08,14,15,59,32.30
2010,08,14,16,00,32.40
2010,08,14,16,01,32.30
2010,08,14,16,02,32.30
2010,08,14,16,03,32.20
2010,08,14,16,04,32.20
2010,08,14,16,05,32.10
2010,08,14,16,06,32.10
2010,08,14,16,07,32.10
2010,08,14,16,08,32.10
2010,08,14,16,09,32.10
2010,08,14,16,10,32.10
2010,08,14,16,11,32.10
2010,08,14,16,12,32.10
2010,08,14,16,13,32.10
2010,08,14,16,14,32.20
2010,08,14,16,15,32.20
2010,08,14,16,16,32.30
2010,08,14,16,17,32.30
2010,08,14,16,18,32.30
2010,08,14,16,19,32.40
2010,08,14,16,20,32.50
2010,08,14,16,21,32.50
2010,08,14,16,22,32.60
2010,08,14,16,23,32.60
2010,08,14,16,24,32.70
2010,08,14,16,25,32.80
2010,08,14,16,26,32.80
2010,08,14,16,27,32.80
2010,08,14,16,28,32.60
2010,08,14,16,29,32.60
2010,08,14,16,30,32.60
2010,08,14,16,31,32.60
2010,08,14,16,32,32.60
2010,08,14,16,33,32.60
2010,08,14,16,34,32.70
2010,08,14,16,35,32.70
2010,08,14,16,36,32.60
2010,08,14,16,37,32.50
2010,08,14,16,38,32.50
2010,08,14,16,39,32.40
2010,08,14,16,40,32.50
2010,08,14,16,41,32.50
2010,08,14,16,42,32.50
2010,08,14,16,43,32.40
2010,08,14,16,44,32.40
2010,08,14,16,45,32.50
2010,08,14,16,46,32.40
2010,08,14,16,47,32.40
2010,08,14,16,48,32.40
2010,08,14,16,49,32.40
2010,08,14,16,50,32.40
2010,08,14,16,51,32.40
2010,08,14,16,52,32.40
2010,08,14,16,53,32.50
2010,08,14,16,54,32.60
2010,08,14,16,55,32.60
2010,08,14,16,56,32.80
2010,08,14,16,57,32.80
2010,08,14,16,58,32.80
2010,08,14,16,59,32.80
2010,08,14,17,00,32.60
2010,08,14,17,01,32.60
2010,08,14,17,02,32.60
2010,08,14,17,03,32.60
2010,08,14,17,04,32.60
2010,08,14,17,05,32.60
2010,08,14,17,06,32.60
2010,08,14,17,07,32.60
2010,08,14,17,08,32.60
2010,08,14,17,09,32.60
2010,08,14,17,10,32.60
2010,08,14,17,11,32.60
2010,08,14,17,12,32.60
2010,08,14,17,13,32.80
2010,08,14,17,14,32.80
2010,08,14,17,15,32.90
2010,08,14,17,16,32.90
2010,08,14,17,17,32.90
2010,08,14,17,18,32.90
2010,08,14,17,19,32.90